Wetbulb
31.37 31.46 31.88 32.10 32.90 32.95 33.15 33.94 34.28 34.13 34.36 35.02 36.16 37.76 37.82 35.65 34.60 34.21 35.17 36.03 36.37 36.73
30.14 29.48 28.94 28.89 29.61 30.49 30.92 32.53 33.01 33.01 32.68 33.14 33.40 33.81 34.71 34.01 33.12 33.04 33.21 34.21 34.70 35.56
30.23 29.84 29.09 28.47 27.57 27.91 29.33 29.58 29.57 30.65 31.30 31.78 31.96 31.97 32.13 31.76 32.19 31.71 32.05 32.75 32.13 33.70
30.57 29.29 28.47 26.84 27.10 27.10 27.35 28.10 28.96 29.15 28.71 29.08 29.64 30.74 30.72 30.77 31.12 30.97 31.99 31.85 31.22 31.93
29.85 29.23 27.61 27.31 26.89 26.21 25.77 26.68 27.08 28.22 28.07 28.10 28.40 28.75 28.82 29.54 30.10 30.40 30.72 31.96 31.15 31.43
26.98 26.86 27.44 27.17 27.49 27.06 27.17 26.55 25.99 26.40 26.13 26.85 27.36 27.83 28.04 27.98 28.80 29.61 30.34 31.74 31.33 31.48
24.72 25.88 26.40 25.73 25.22 25.16 26.35 25.60 25.55 25.74 25.54 26.09 26.52 27.10 27.37 27.90 28.30 28.68 29.65 30.20 30.72 31.76
25.06 25.66 25.50 24.84 24.72 24.15 24.29 24.83 24.71 24.70 24.93 25.20 25.33 26.20 25.10 26.53 27.35 28.11 28.78 29.64 30.26 30.56
24.82 25.13 24.82 24.94 25.08 25.05 24.76 24.22 23.77 23.47 22.92 22.17 24.07 27.67 29.09 28.66 26.33 27.25 27.48 27.72 29.26 30.00
22.69 22.78 23.28 23.45 23.10 22.53 21.91 22.06 21.40 21.58 22.04 21.81 22.28 26.39 27.26 27.49 25.47 25.07 25.60 26.61 27.45 28.36
20.79 19.15 19.53 18.98 18.20 18.19 18.41 17.99 18.25 18.83 19.71 20.16 21.38 25.39 25.91 25.93 23.53 23.04 23.60 24.23 25.11 26.23
16.37 14.33 14.08 12.18 12.58 13.45 13.22 12.99 12.91 14.60 14.52 14.93 15.98 21.04 22.17 22.34 21.07 20.93 20.43 21.77 22.54 23.35
13.53 10.32 9.52 9.66 8.55 9.21 8.94 9.92 10.49 9.91 10.43 10.63 9.91 15.64 17.69 18.31 16.26 15.62 17.17 18.68 20.58 22.98
9.87 7.53 6.79 6.54 6.83 5.86 5.15 6.31 4.83 5.75 6.74 7.28 8.74 9.60 15.40 17.43 15.71 15.30 15.33 16.01 17.34 20.18
MSLP
1023.94 1023.73 1023.78 1023.51 1023.21 1023.01 1022.74 1022.26 1021.74 1021.42 1020.94 1020.59 1019.51 1018.95 1018.83 1019.01 1019.05 1019.15 1018.88 1018.66 1018.78 1018.61
1024.25 1024.76 1024.86 1024.21 1023.92 1023.78 1023.31 1022.61 1022.13 1021.72 1021.45 1020.58 1019.70 1019.46 1019.27 1019.13 1018.95 1018.95 1018.79 1018.46 1018.14 1018.06
1025.51 1025.28 1024.96 1024.81 1024.37 1023.85 1023.57 1023.25 1022.80 1022.22 1021.56 1020.94 1020.02 1019.45 1019.27 1019.21 1019.09 1018.93 1018.52 1018.36 1018.08 1017.57
1025.73 1025.15 1025.14 1025.00 1024.71 1024.47 1023.82 1023.39 1022.83 1022.32 1021.69 1021.18 1020.26 1019.99 1019.67 1019.31 1018.79 1018.77 1018.76 1018.19 1017.86 1017.44
1025.72 1025.24 1025.02 1024.86 1024.43 1024.31 1023.93 1023.48 1023.00 1022.15 1021.75 1021.14 1020.58 1020.53 1020.07 1019.61 1018.92 1018.60 1018.12 1018.16 1017.79 1017.10
1025.28 1024.86 1024.67 1024.71 1024.59 1023.84 1023.72 1023.19 1022.54 1022.15 1022.01 1020.94 1020.46 1020.39 1020.22 1019.57 1018.75 1018.16 1017.90 1017.36 1016.81 1016.62
1024.94 1024.66 1024.61 1024.53 1024.31 1023.83 1023.41 1022.87 1022.47 1021.83 1021.35 1020.84 1020.06 1019.91 1019.53 1018.94 1018.37 1017.70 1017.27 1016.83 1016.42 1015.85
1024.70 1024.48 1024.30 1024.01 1023.50 1023.06 1022.96 1022.63 1021.97 1021.49 1020.93 1020.44 1019.83 1019.36 1018.79 1018.43 1017.81 1017.09 1016.32 1015.89 1015.55 1015.20
1024.57 1024.46 1024.32 1023.98 1023.61 1023.24 1022.74 1022.11 1021.54 1021.04 1020.44 1019.72 1019.14 1018.66 1018.55 1018.17 1017.23 1016.62 1015.71 1014.93 1014.25 1014.06
1025.00 1024.73 1024.36 1023.94 1023.53 1023.00 1022.39 1021.77 1021.15 1020.42 1019.85 1019.01 1018.43 1018.14 1017.90 1017.45 1016.80 1015.99 1014.84 1014.18 1013.58 1013.00
1025.18 1025.05 1024.73 1024.27 1023.75 1023.08 1022.47 1021.68 1020.81 1019.89 1019.36 1018.69 1017.53 1017.33 1017.14 1016.73 1016.14 1015.21 1014.34 1013.80 1013.10 1012.61
1025.56 1025.37 1025.03 1024.64 1024.10 1023.46 1022.71 1021.84 1021.02 1020.20 1019.31 1018.65 1017.22 1017.18 1016.63 1016.16 1015.28 1014.35 1013.50 1012.95 1012.26 1011.64
1025.85 1025.63 1025.18 1024.65 1024.08 1023.47 1022.86 1021.79 1020.99 1020.07 1019.60 1018.80 1017.65 1017.42 1016.66 1015.99 1015.02 1013.65 1012.69 1011.85 1010.98 1010.40
1025.91 1025.64 1025.15 1024.34 1023.79 1023.05 1022.26 1021.37 1020.65 1019.74 1019.14 1018.47 1017.74 1016.93 1016.18 1015.26 1014.17 1013.19 1011.91 1010.78 1009.74 1008.89
Wind_Speed
11 7 7 8 7 6 6 6 7 7 7 8 7 6 5 3 4 6 7 11 10 9
8 8 7 7 6 5 6 8 9 8 8 7 7 7 7 4 5 6 6 8 9 9
6 5 6 6 6 6 6 7 8 8 9 10 8 7 6 5 6 6 5 6 7 9
5 4 4 4 5 7 6 7 8 8 7 9 10 9 7 7 6 7 9 7 7 10
4 5 6 6 6 6 7 6 7 7 7 8 8 9 8 9 7 7 8 10 9 10
3 4 5 6 7 8 8 9 9 8 8 8 7 8 10 9 9 9 10 10 10 12
5 5 6 6 7 7 8 8 9 9 10 10 10 10 10 10 10 10 10 10 11 11
6 7 8 8 9 8 7 9 10 12 11 11 11 10 10 11 12 12 13 12 11 12
8 10 10 11 12 12 13 13 12 13 13 14 11 22 26 23 15 15 15 16 14 12
8 10 11 11 12 14 16 16 17 17 16 18 17 25 27 28 16 17 17 17 16 15
6 6 9 12 14 16 15 17 17 18 18 18 18 31 32 31 19 17 18 18 18 19
6 9 12 13 14 14 15 16 17 17 19 19 21 31 34 31 19 18 20 19 20 20
9 8 12 14 15 14 13 16 14 17 17 19 20 27 32 28 15 19 16 19 20 29
8 10 12 13 12 14 15 15 15 17 15 16 17 17 28 28 16 14 15 15 15 15
Wind_Direction
24 30 24 17 9 8 2 347 341 339 338 329 339 320 289 247 247 241 230 229 234 238
29 19 8 10 7 355 351 353 349 344 335 334 345 338 322 299 278 260 249 240 235 234
4 9 5 355 1 1 341 344 341 342 345 340 341 342 340 319 304 288 270 258 245 246
345 4 349 340 339 337 327 328 336 332 335 337 342 338 333 313 298 297 290 274 253 256
319 335 334 328 323 323 318 316 315 318 319 323 330 324 323 311 301 289 282 282 275 263
303 323 311 311 303 312 308 307 315 313 299 300 294 299 300 297 296 291 282 277 267 273
320 320 313 287 278 277 276 287 292 293 295 293 295 287 280 279 280 278 277 274 272 268
315 325 319 310 309 305 295 291 296 297 294 290 287 286 291 283 279 274 275 270 260 262
330 322 310 307 307 307 308 308 301 294 293 291 288 290 291 291 287 282 278 276 270 262
310 305 306 310 313 312 309 307 302 298 295 291 286 286 291 294 291 288 281 276 275 273
303 314 323 318 311 308 305 303 301 297 296 294 290 293 296 295 289 284 280 279 277 270
341 319 312 304 302 302 301 298 296 294 295 295 294 301 301 300 294 285 282 280 274 272
314 302 300 299 299 295 290 289 292 291 291 292 293 299 298 298 289 286 286 282 277 273
300 298 292 291 294 294 292 289 289 287 288 287 287 290 294 295 288 284 281 276 273 268